sat.trackr.live / text

‹ back to catalog

STARLINK-3565

NORAD 51886 · 2022-022AL

PAYLOAD ACTIVE UNKNOWN

§ Identity

Operator
Country
US
Launch date
2022-03-03
Launch site
AFETR
Launch vehicle
Mass (kg)
RCS (m²)

Purposes: comms

External: N2YO · Heavens-Above · Gunter

§ Orbital elements

Epoch: 2026-05-24T22:42:11.666304Z

Period
95.44 min
Inclination
53.2144°
Eccentricity
0.0001324
Mean motion
15.08839417 rev/d
Perigee alt
538.8 km
Apogee alt
540.7 km
Semi-major
6,917.9 km
B*
-3.6777e-5
RAAN
16.7917°
Arg perigee
89.6760°
Mean anomaly
270.4384°
Rev number
23,476

§ Raw data

STARLINK-35651 51886U 22022AL  26144.94596836 -.00000873  00000+0 -36777-4 0  99962 51886  53.2144  16.7917 0001324  89.6760 270.4384 15.08839417234762

JSON: /api/v1/satellites/51886 · /tle

For live sub-satellite position, see the globe view (requires WebGL).

§ Visibility from observer

Set your observer location to see the next 7 days of passes ≥ 10°. The values pass through the URL so the page stays shareable.

No JS? Fill the form by hand. The geolocation button needs JavaScript.